Content
SEND FEEDBACK

Jamaica Flag

MONTEGO BAY, JAMAICA


Home > Caribbean > Jamaica
Elevation: 10 feet     Latitude: 18 30N     Longitude: 077 55W

WEATHER
 
SELECT A DAY
Number of Records: 187,852;   Date Range: 7/1/96 - 3/22/16
 
SHARE

PRINT THIS DATA

[ ← Previous Day ]
WEATHER ALMANAC - FEBRUARY 9, 2014
[ Next Day → ]
[ °C ]   °F
Weather ElementAverageHighLow
Temperature73.2 °F84.2 °F (1:00 pm) (6:00 am)
Dewpoint68.7 °F77 °F (2:00 pm) (7:00 pm)
Humidity84.4 %100 % (4:00 am)57 % (1:00 pm)
Barometer29.97 in30.04 in (10:00 am)29.92 in (3:00 pm)
Wind Speed5.6 mph11.5 mph (3:00 pm)
Weather ElementAverage
Visibility8.1 mi
Wind DirectionENE (75.7 °)

Weather ElementTotal
Precipitation---
Heating Degree Days22.9 (Base 65)
Averaged from 29 records on February 9, 2014
WEATHER CONDITIONS BREAKOUT
WIND DIRECTION BREAKOUT
WEATHER BY HOUR - FEBRUARY 9, 2014
[ °C ]   °F
Local TimeTemperatureDewpointHumidityBarometerVisibilityWind DirectionWind SpeedGust SpeedPrecipitationEventsConditions
1:00 AM75.2 °F71.6 °F89 %30.01 in6.2 miVariable2.3 mphPartly Cloudy
2:00 AM73.4 °F71.6 °F94 %29.98 in6.2 miVariable2.3 mphPartly Cloudy
3:00 AM73.4 °F71.6 °F94 %29.98 in6.2 miSSE (150°)3.5 mphPartly Cloudy
4:00 AM73.4 °F73.4 °F100 %29.95 in6.2 miVariable2.3 mphPartly Cloudy
5:00 AM73.4 °F71.6 °F94 %29.95 in6.2 miVariable1.2 mphPartly Cloudy
6:00 AM0.0 °F0.0 °FVariable2.3 mph
7:00 AM73.4 °F71.6 °F94 %29.98 in6.2 miSE (140°)4.6 mphPartly Cloudy
7:00 AM73.0 °F71.0 °F90 %30.00 in16.0 miSE (140°)4.6 mphHaze
8:00 AM77.0 °F71.6 °F83 %30.01 in6.2 miSSE (150°)3.5 mphPartly Cloudy
9:00 AM78.8 °F71.6 °F78 %30.01 in6.2 miNNW (340°)3.5 mphPartly Cloudy
10:00 AM81.0 °F74.0 °F73 %30.04 in16.0 miNE (50°)9.2 mphHaze
10:00 AM80.6 °F73.4 °F79 %30.04 in6.2 miNE (50°)9.2 mphPartly Cloudy
11:00 AM82.4 °F75.2 °F79 %30.01 in6.2 miNE (50°)9.2 mphPartly Cloudy
12:00 PM82.4 °F75.2 °F79 %29.98 in6.2 miNE (40°)6.9 mphPartly Cloudy
1:00 PM84.2 °F71.6 °F66 %29.95 in6.2 miNE (50°)6.9 mphPartly Cloudy
1:00 PM84.0 °F71.0 °F57 %29.97 in15.0 miNE (50°)6.9 mphHaze
2:00 PM84.2 °F77.0 °F79 %29.95 in6.2 miNE (50°)10.4 mphPartly Cloudy
3:00 PM82.4 °F77.0 °F84 %29.92 in6.2 miENE (60°)11.5 mphPartly Cloudy
4:00 PM82.0 °F76.0 °F78 %29.93 in15.0 miENE (60°)10.4 mphHaze
4:00 PM82.4 °F77.0 °F84 %29.92 in6.2 miENE (60°)10.4 mphPartly Cloudy
5:00 PM82.4 °F77.0 °F84 %29.92 in6.2 miEast (80°)10.4 mphPartly Cloudy
6:00 PM78.8 °F75.2 °F89 %29.92 in6.2 miEast (80°)8.1 mphPartly Cloudy
7:00 PM0.0 °F0.0 °FENE (60°)3.5 mph
7:00 PM81.0 °F73.0 °F71 %29.95 in14.0 miENE (60°)3.5 mphHaze
8:00 PM77.0 °F73.4 °F89 %29.95 in6.2 miEast (90°)4.6 mphPartly Cloudy
9:00 PM77.0 °F75.2 °F94 %29.98 in6.2 miSouth (170°)3.5 mphPartly Cloudy
10:00 PM77.0 °F74.0 °F89 %30.01 in12.0 mi°2.3 mphHaze
10:00 PM77.0 °F75.2 °F94 %30.01 in6.2 miVariable2.3 mphPartly Cloudy
11:00 PM77.0 °F75.2 °F94 %29.98 in6.2 miSE (140°)3.5 mphPartly Cloudy
Hourly data recorded from MKJS, located miles away from Montego Bay, Jamaica




STORIES FROM OUR PARTNERS